Regional Weather Roundup
Issued by NWS Mobile, AL

Home | Current Version | Previous Version | Text Only | Print | Product List | Glossary On
Versions: 1 2 3 4 5 6 7 8 9 10 11 12 13 14 15 16 17 18 19 20 21 22 23 24 25 26 27 28 29 30 31 32 33 34 35 36 37 38 39 40 41 42 43 44 45 46 47 48 49 50
545
ASUS44 KMOB 241013
RWRMOB
REGIONAL WEATHER ROUNDUP
NATIONAL WEATHER SERVICE MOBILE AL
500 AM CDT FRI MAR 24 2017

NOTE: "FAIR" INDICATES FEW OR NO CLOUDS BELOW 12,000 FEET WITH NO
      SIGNIFICANT WEATHER AND/OR OBSTRUCTIONS TO VISIBILITY.

  * THESE STATIONS ARE PART OF THE UNIVERSITY OF SOUTH ALABAMA
    MESONET AND ARE NOT UNDER NWS OR FAA QUALITY CONTROL.

ALZ061>064-241100-
COASTAL ALABAMA

CITY           SKY/WX    TMP DP  RH WIND       PRES   REMARKS
MOBILE REG APT CLOUDY    67  62  84 SE13G23   30.23S
BROOKLEY FIELD CLOUDY    70  63  78 SE21      30.24S
USA CAMPUS*    NOT AVBL
DOG RIVER*       N/A     68  63  83 SE13      31.05


CITY           SKY/WX    TMP DP  RH WIND       PRES   REMARKS
GULF SHORES    CLOUDY    68  63  84 SE14G29   30.24S

$$

ALZ051>060-241100-
INTERIOR SOUTHWEST AND SOUTH CENTRAL ALABAMA

CITY           SKY/WX    TMP DP  RH WIND       PRES   REMARKS
GREENVILLE     CLOUDY    60  51  72 SE8       30.30R
EVERGREEN      CLOUDY    63  54  72 SE9       30.29R
ATMORE*          N/A     64  57  77 SE12      30.27S
ANDALUSIA/OPP  CLOUDY    62  53  72 E9        30.31R
ANDALUSIA*       N/A     59  54  82 SE10      30.30R
FLORALA APT    CLOUDY    60  53  77 E3        30.32R
FLORALA*         N/A     61  54  77 CALM      31.11R

$$

FLZ001>006-241100-
WESTERN FLORIDA PANHANDLE

CITY           SKY/WX    TMP DP  RH WIND       PRES   REMARKS
PENSACOLA      CLOUDY    69  59  70 SE21      30.26R
NAS PENSACOLA  CLOUDY    69  60  73 SE17G25   30.25R
MILTON         LGT RAIN  64  56  75 E10       30.27R
WHTNG S FIELD  CLOUDY    68  58  70 SE10      30.27S


CITY           SKY/WX    TMP DP  RH WIND       PRES   REMARKS
JAY*             N/A     63  54  72 E10       30.27S
DUKE FIELD     PTCLDY    61  53  76 E7        30.27S
CRESTVIEW      CLOUDY    60  54  80 VRB6      30.31R
VALPARAISO     MOCLDY    64  56  74 E13G21    30.28R
DESTIN         MOCLDY    67  62  84 E14G26    30.27S

$$

MSZ076-079-241100-
INTERIOR SOUTHEAST MISSISSIPPI

CITY           SKY/WX    TMP DP  RH WIND       PRES   REMARKS
LEAKESVILLE*   NOT AVBL
AGRICOLA*        N/A     66  63  88 S2        30.20

$$

MARINE OBSERVATIONS

STATION/POSITION TIME  TEMP    WIND        PRES    WAVE
                       AIR SEA DIR/SP/G            HT/PER
                 (UTC) (F)     (DEG/KT/KT) (MB)    (FT/S)
PASCAGOULA       0948   70     130/ 15/ 19 1022.7R
PETIT BOIS ISLND 0948   69     120/ 14/ 19 1023.5R
GRAND BAY        0845   70     140/ 18     1024.0S
KATRINA CUT      0930          130/ 20     1022.7S
CEDAR POINT      0930   69     140/ 18     1023.4S
E DAUPHIN ISLAND 0900   69     130/ 21/ 23 1023.1F
MIDDLE BAY LIGHT 0930   69     130/ 23     1022.7F
USCG MOBILE BAY  0948   69 70  130/ 14/ 17 1024.3F
STATE DOCKS      0936   68 65              1023.9F
MEAHER PARK      0930   69     120/ 11     1023.7S
WEEKS BAY        0845   69                   N/A
FORT MORGAN      0948   69     130/ 24/ 27   N/A
12 S ORANGE BCH  0950   69 69  130/ 19/ 25 1023.3R   7/ 7
PENSACOLA BAY    0936   68 69  130/  3/  9 1024.7R
64 S DAUPHIN ISL 0950   72 73  130/ 21/ 25 1022.4F
67 S FORT MORGAN 0930   71     130/ 23     1022.7F

$$

SELECTED LOCATIONS ACROSS THE REGION

CITY           SKY/WX    TMP DP  RH WIND       PRES   REMARKS
NEW ORLEANS    MOCLDY    68  65  90 SE14      30.14F
GULFPORT       CLOUDY    71  66  84 SE16      30.18S
PASCAGOULA AP  CLOUDY    70  63  78 SE15G23   30.21S
PASCAGOULA*    NOT AVBL
HATTIESBURG    MOCLDY    68  62  81 SE12      30.18F
LAUREL         CLOUDY    68  61  77 SE9       30.20S
MERIDIAN       CLOUDY    68  62  81 SE16G22   30.21S
JACKSON        PTCLDY    66  61  84 SE12      30.13F
MONTGOMERY     CLOUDY    64  50  60 SE13      30.32R
TROY           MOCLDY    59  53  80 SE7       30.33S
ASHFORD*         N/A     59  54  82 SE10      30.30R
DOTHAN         CLOUDY    57  54  89 E9        30.36S
PANAMA CITY    CLEAR     60  54  80 E6        30.29S

$$





USA.gov is the U.S. government's official web portal to all federal, state and local government web resources and services.